Weather History for Point Hope, AK

Change the Weather History Date:

Wednesday, May 15, 2013

  Actual Average Record
Temperature  
Mean Temperature 28 °F -  
Max Temperature 32 °F 30 °F 39 °F (2011)
Min Temperature 23 °F 23 °F 12 °F (2007)
Degree Days  
Heating Degree Days 38    
Moisture  
Dew Point 22 °F    
Average Humidity 83    
Maximum Humidity 87    
Minimum Humidity 74    
Precipitation  
Precipitation 0.02 in - - ()
Sea Level Pressure  
Sea Level Pressure 29.37 in    
Wind  
Wind Speed 13 mph (SSE)    
Max Wind Speed 29 mph    
Max Gust Speed 32 mph    
Visibility 3 miles    
Events      
Averages and records for this station are not official NWS values.
T = Trace of Precipitation, MM = Missing Value Source: NWS Daily Summary

Daily Weather History Graph

Daily Weather History Graph

Search for Another Location

Airport:

Trip Planner

Search our weather history database for the weather conditions in past years. The results will help you decide how hot, cold, wet, or windy it might be!

Date:

Astronomy

May. 15, 2013 Rise Set
Actual Time 4:42 AM AKDT 1:30 AM AKDT
Civil Twilight Sun does not rise Sun does not rise
Nautical Twilight Sun does not rise Sun does not rise
Astronomical Twilight Sun does not rise Sun does not rise
Moon 10:30 AM AKDT (5/15) 4:25 AM AKDT (5/15)
Length of Visible Light 24h 00m
Length of Day
20h 47m
Waxing Crescent, 28% of the Moon is Illuminated
May 15
Waxing Crescent
May 17
First Quarter
May 24
Full
May 31
Last Quarter
Jun 8
New

Hourly Weather History & Observations

Time (AKDT) Temp. Windchill Dew Point Humidity Pressure Visibility Wind Dir Wind Speed Gust Speed Precip Events Conditions
12:16 AM 24.8 °F 17.9 °F 19.4 °F 80% 29.46 in 2.0 mi West 5.8 mph - N/A   Overcast
12:36 AM 24.8 °F 17.9 °F 19.4 °F 80% 29.46 in 1.8 mi West 5.8 mph - N/A   Overcast
12:56 AM 24.8 °F 17.9 °F 19.4 °F 80% 29.46 in 1.2 mi West 5.8 mph - N/A   Overcast
1:16 AM 24.8 °F 17.9 °F 19.4 °F 80% 29.46 in 2.5 mi West 5.8 mph - N/A   Overcast
1:36 AM 24.8 °F 20.5 °F 19.4 °F 80% 29.46 in 1.5 mi West 3.5 mph - N/A   Overcast
1:56 AM 24.8 °F 20.5 °F 19.4 °F 80% 29.46 in 1.8 mi WSW 3.5 mph - N/A   Overcast
2:16 AM 24.8 °F - 19.4 °F 80% 29.45 in 1.2 mi Calm Calm - N/A   Overcast
2:36 AM 24.8 °F - 19.4 °F 80% 29.45 in 1.0 mi Calm Calm - N/A   Overcast
2:56 AM 24.8 °F - 19.4 °F 80% 29.45 in 0.5 mi Calm Calm - N/A   Overcast
3:16 AM 23.0 °F - 19.4 °F 86% 29.44 in 1.0 mi Calm Calm - N/A   Overcast
3:36 AM 23.0 °F - 19.4 °F 86% 29.44 in 0.8 mi Calm Calm - N/A   Overcast
3:56 AM 24.8 °F - 19.4 °F 80% 29.43 in 1.2 mi Calm Calm - 0.01 in   Overcast
4:16 AM 24.8 °F 17.9 °F 19.4 °F 80% 29.42 in 2.0 mi East 5.8 mph - N/A   Overcast
4:36 AM 24.8 °F 15.3 °F 19.4 °F 80% 29.41 in 1.8 mi SSE 9.2 mph - N/A   Overcast
4:56 AM 24.8 °F 12.9 °F 21.2 °F 86% 29.41 in 1.2 mi South 13.8 mph - 0.01 in   Overcast
5:16 AM 24.8 °F 11.9 °F 21.2 °F 86% 29.40 in 2.0 mi South 16.1 mph - N/A   Overcast
5:36 AM 24.8 °F 11.5 °F 21.2 °F 86% 29.40 in 1.2 mi South 17.3 mph - N/A   Overcast
5:56 AM 26.6 °F 13.8 °F 21.2 °F 80% 29.39 in 1.2 mi South 17.3 mph - N/A   Overcast
6:16 AM 24.8 °F 12.9 °F 21.2 °F 86% 29.40 in 1.2 mi South 13.8 mph - N/A   Overcast
6:36 AM 26.6 °F 14.3 °F 21.2 °F 80% 29.39 in 2.5 mi South 16.1 mph - N/A   Overcast
6:56 AM 24.8 °F 11.9 °F 21.2 °F 86% 29.39 in 1.2 mi South 16.1 mph - N/A   Overcast
7:16 AM 26.6 °F 12.7 °F 21.2 °F 80% 29.38 in 1.2 mi SSE 20.7 mph 26.5 mph N/A   Overcast
7:36 AM 26.6 °F 12.7 °F 21.2 °F 80% 29.38 in 0.8 mi SSE 20.7 mph - N/A   Overcast
7:56 AM 24.8 °F 10.0 °F 21.2 °F 86% 29.38 in 1.0 mi SSE 21.9 mph - N/A   Overcast
8:16 AM 24.8 °F 9.3 °F 21.2 °F 86% 29.37 in 0.8 mi SSE 24.2 mph - N/A   Overcast
8:56 AM 24.8 °F 9.3 °F 21.2 °F 86% 29.37 in 0.8 mi SSE 24.2 mph 29.9 mph N/A   Overcast
9:16 AM 24.8 °F 9.0 °F 21.2 °F 86% 29.37 in 0.5 mi SSE 25.3 mph - N/A   Overcast
9:36 AM 24.8 °F 8.1 °F 21.2 °F 86% 29.37 in 0.5 mi SSE 28.8 mph - N/A   Overcast
9:56 AM 24.8 °F 9.0 °F 21.2 °F 86% 29.37 in 0.5 mi SSE 25.3 mph 28.8 mph N/A   Overcast
10:16 AM 24.8 °F 8.7 °F 21.2 °F 86% 29.37 in 1.0 mi SSE 26.5 mph - N/A   Overcast
10:36 AM 24.8 °F 9.0 °F 21.2 °F 86% 29.37 in 1.0 mi SE 25.3 mph 29.9 mph N/A   Overcast
10:56 AM 24.8 °F 9.0 °F 21.2 °F 86% 29.37 in 1.2 mi SE 25.3 mph - N/A   Overcast
11:16 AM 24.8 °F 9.0 °F 21.2 °F 86% 29.37 in 1.0 mi SE 25.3 mph - N/A   Overcast
11:36 AM 26.6 °F 11.4 °F 21.2 °F 80% 29.37 in 1.2 mi SE 25.3 mph - N/A   Overcast
11:56 AM 24.8 °F 8.4 °F 21.2 °F 86% 29.38 in 1.2 mi SE 27.6 mph - N/A   Overcast
12:16 PM 26.6 °F 11.7 °F 21.2 °F 80% 29.38 in 2.0 mi SE 24.2 mph - N/A   Overcast
12:36 PM 26.6 °F 11.4 °F 21.2 °F 80% 29.38 in 4.0 mi SE 25.3 mph 31.1 mph N/A   Overcast
12:56 PM 26.6 °F 11.1 °F 21.2 °F 80% 29.37 in 3.0 mi SE 26.5 mph 31.1 mph N/A   Overcast
1:16 PM 26.6 °F 12.0 °F 21.2 °F 80% 29.37 in 3.0 mi SE 23.0 mph - N/A   Overcast
1:36 PM 26.6 °F 11.4 °F 21.2 °F 80% 29.37 in 4.0 mi SE 25.3 mph 29.9 mph N/A   Overcast
1:56 PM 26.6 °F 11.7 °F 23.0 °F 86% 29.37 in 8.0 mi SE 24.2 mph - N/A   Overcast
2:16 PM 26.6 °F 11.4 °F 23.0 °F 86% 29.37 in 6.0 mi SE 25.3 mph - N/A   Overcast
2:36 PM 26.6 °F 11.4 °F 23.0 °F 86% 29.36 in 8.0 mi SE 25.3 mph - N/A   Overcast
2:56 PM 28.4 °F 14.1 °F 21.2 °F 74% 29.36 in 8.0 mi SE 24.2 mph - N/A   Overcast
3:16 PM 26.6 °F 11.4 °F 21.2 °F 80% 29.36 in 5.0 mi SE 25.3 mph 32.2 mph N/A   Overcast
3:36 PM 26.6 °F 12.0 °F 23.0 °F 86% 29.36 in 5.0 mi SE 23.0 mph - N/A   Overcast
3:56 PM 28.4 °F 14.1 °F 23.0 °F 80% 29.35 in 7.0 mi SE 24.2 mph 27.6 mph N/A   Overcast
4:16 PM 28.4 °F 14.4 °F 23.0 °F 80% 29.35 in 8.0 mi SE 23.0 mph 28.8 mph N/A   Overcast
4:56 PM 28.4 °F 15.4 °F 24.8 °F 86% 29.34 in 10.0 mi SE 19.6 mph - N/A   Overcast
5:16 PM 30.2 °F 17.1 °F 24.8 °F 80% 29.33 in 10.0 mi SE 21.9 mph - N/A   Overcast
5:36 PM 30.2 °F 18.5 °F 24.8 °F 80% 29.33 in 10.0 mi SE 17.3 mph - N/A   Overcast
5:56 PM 30.2 °F 18.1 °F 24.8 °F 80% 29.32 in 10.0 mi SE 18.4 mph - N/A   Overcast
6:16 PM 30.2 °F 19.8 °F 26.6 °F 86% 29.32 in 5.0 mi SE 13.8 mph - N/A   Overcast
6:36 PM 30.2 °F 20.2 °F 26.6 °F 86% 29.31 in 1.8 mi SE 12.7 mph - N/A   Overcast
6:56 PM 30.2 °F 21.3 °F 26.6 °F 86% 29.31 in 1.5 mi SE 10.4 mph - N/A   Overcast
7:16 PM 32.0 °F 22.1 °F 28.4 °F 87% 29.31 in 1.2 mi SSE 13.8 mph - N/A   Overcast
7:36 PM 32.0 °F 22.1 °F 26.6 °F 80% 29.30 in 1.0 mi SSE 13.8 mph - N/A   Overcast
7:56 PM 32.0 °F 22.1 °F 26.6 °F 80% 29.30 in 1.0 mi SE 13.8 mph - N/A   Overcast
8:16 PM 32.0 °F 21.6 °F 28.4 °F 87% 29.30 in 1.5 mi SSE 15.0 mph - N/A   Overcast
8:36 PM 30.2 °F 18.1 °F 26.6 °F 86% 29.30 in 1.2 mi SE 18.4 mph - N/A   Overcast
8:56 PM 30.2 °F 19.3 °F 26.6 °F 86% 29.30 in 1.2 mi SE 15.0 mph - N/A   Overcast
9:16 PM 30.2 °F 19.3 °F 26.6 °F 86% 29.30 in 1.8 mi SE 15.0 mph - N/A   Overcast
9:36 PM 30.2 °F 18.9 °F 26.6 °F 86% 29.30 in 1.8 mi SE 16.1 mph - N/A   Overcast
9:56 PM 30.2 °F 19.8 °F 24.8 °F 80% 29.30 in 3.0 mi SE 13.8 mph - N/A   Overcast
10:16 PM 30.2 °F 20.8 °F 24.8 °F 80% 29.30 in 7.0 mi SE 11.5 mph - N/A   Overcast
10:36 PM 30.2 °F 20.8 °F 24.8 °F 80% 29.30 in 2.5 mi ESE 11.5 mph - N/A   Overcast
10:56 PM 30.2 °F 20.2 °F 24.8 °F 80% 29.30 in 5.0 mi SE 12.7 mph - N/A   Overcast
11:16 PM 30.2 °F 20.8 °F 24.8 °F 80% 29.29 in 2.5 mi ESE 11.5 mph - N/A   Overcast
11:36 PM 30.2 °F 20.8 °F 24.8 °F 80% 29.29 in 1.5 mi ESE 11.5 mph - N/A   Overcast
11:56 PM 30.2 °F 21.3 °F 24.8 °F 80% 29.29 in 1.0 mi ESE 10.4 mph - N/A   Overcast